Wellsville, NY

10:59 AM EST on December 14, 2019 (GMT -0500)
Wellsville Municipal-Tarantine

Weather History for KELZ - November, 2019

Change the Weather History Date:

Saturday, November 16, 2019

  Actual Average (WUND) Record (WUND)
Temperature  
Mean Temperature 24 °F -  
Max Temperature 30 °F - - (-1)
Min Temperature 17 °F - - (-1)
Degree Days  
Heating Degree Days 42    
Moisture  
Dew Point 10 °F    
Average Humidity 61    
Maximum Humidity 81    
Minimum Humidity 31    
Precipitation  
Precipitation 0.00 in - - ()
Sea Level Pressure  
Sea Level Pressure 30.44 in    
Wind  
Wind Speed 8 mph ()    
Max Wind Speed 12 mph    
Max Gust Speed 17 mph    
Visibility 10.0 miles    
Events      
Averages and records for this station are not official NWS values.
T = Trace of Precipitation, MM = Missing Value Source: Averaged Metar Reports

Daily Weather History Graph

Daily Weather History Graph

Search for Another Location

Airport or City:

Astronomy

Nov. 16, 2019 Rise Set
Actual Time 7:03 AM EST 4:49 PM EST
Civil Twilight 6:32 AM EST 5:20 PM EST
Nautical Twilight 5:59 AM EST 5:53 PM EST
Astronomical Twilight 5:25 AM EST 6:26 PM EST
Moon 8:18 PM EST (11/16) 10:57 AM EST (11/16)
Length of Visible Light 10h 47m
Length of Day
9h 46m
Waning Gibbous, 82% of the Moon is Illuminated
Nov 16
Waning Gibbous
Nov 19
Last Quarter
Nov 26
New
Dec 4
First Quarter
Dec 12
Full

Hourly Weather History & Observations

Time (EST) Temp. Windchill Dew Point Humidity Pressure Visibility Wind Dir Wind Speed Gust Speed Precip Events Conditions
12:11 AM 28.0 °F 18.1 °F 21.9 °F 78% 30.29 in 10.0 mi North 11.5 mph - N/A   Overcast
12:56 AM 26.1 °F 16.2 °F 21.0 °F 81% 30.38 in 10.0 mi North 10.4 mph - N/A   Overcast
1:56 AM 25.0 °F 14.8 °F 18.0 °F 75% 30.39 in 10.0 mi North 10.4 mph 17.3 mph N/A   Overcast
2:53 AM 21.2 °F 10.1 °F 15.8 °F 80% 30.32 in 10.0 mi NNE 10.4 mph - N/A   Mostly Cloudy
2:56 AM 21.9 °F 11.7 °F 15.1 °F 75% 30.40 in 10.0 mi NNE 9.2 mph - N/A   Mostly Cloudy
3:56 AM 19.9 °F 10.1 °F 12.9 °F 74% 30.42 in 10.0 mi NNE 8.1 mph - N/A   Scattered Clouds
4:56 AM 19.0 °F 8.2 °F 10.0 °F 68% 30.44 in 10.0 mi North 9.2 mph - N/A   Clear
5:56 AM 18.0 °F 5.4 °F 10.9 °F 74% 30.45 in 10.0 mi NNE 11.5 mph - N/A   Clear
6:56 AM 17.1 °F 6.6 °F 12.0 °F 81% 30.48 in 10.0 mi NE 8.1 mph - N/A   Clear
7:56 AM 18.0 °F 8.7 °F 12.9 °F 81% 30.51 in 10.0 mi ENE 6.9 mph - N/A   Clear
8:56 AM 19.9 °F 10.1 °F 10.0 °F 65% 30.52 in 10.0 mi ENE 8.1 mph - N/A   Clear
9:56 AM 24.1 °F 16.0 °F 7.0 °F 48% 30.53 in 10.0 mi East 6.9 mph - N/A   Clear
11:56 AM 28.0 °F 20.0 °F 3.9 °F 36% 30.49 in 10.0 mi ESE 8.1 mph - N/A   Clear
12:56 PM 30.0 °F 21.7 °F 3.0 °F 32% 30.47 in 10.0 mi ESE 9.2 mph - N/A   Clear
1:56 PM 30.9 °F 22.2 °F 3.0 °F 31% 30.44 in 10.0 mi ENE 10.4 mph - N/A   Clear
2:56 PM 28.9 °F 20.4 °F 1.9 °F 32% 30.44 in 10.0 mi East 9.2 mph - N/A   Clear
4:56 PM 26.1 °F 19.4 °F 3.9 °F 39% 30.45 in 10.0 mi East 5.8 mph - N/A   Clear
5:56 PM 24.1 °F 14.4 °F 8.1 °F 51% 30.47 in 10.0 mi East 9.2 mph - N/A   Clear
6:56 PM 23.0 °F 14.7 °F 9.0 °F 55% 30.48 in 10.0 mi ESE 6.9 mph - N/A   Clear
7:56 PM 21.0 °F 13.4 °F 9.0 °F 60% 30.48 in 10.0 mi East 5.8 mph - N/A   Clear
8:56 PM 21.0 °F 11.4 °F 9.0 °F 60% 30.46 in 10.0 mi ESE 8.1 mph - N/A   Clear
9:56 PM 19.9 °F 11.1 °F 9.0 °F 62% 30.44 in 10.0 mi SE 6.9 mph - N/A   Clear
10:56 PM 19.0 °F 9.0 °F 9.0 °F 65% 30.41 in 10.0 mi SE 8.1 mph - N/A   Clear
11:56 PM 19.0 °F 10.0 °F 9.0 °F 65% 30.40 in 10.0 mi SE 6.9 mph - N/A   Clear